Lincoln County, Oregon, United States
Lat: 44.65N, Lon: 123.85W
Wx Zone: ORZ004
Local Info
Past Weather Observations for Monday, June 29, 2015

NOTE: This archive is for the closest National Weather Service station to Lincoln County. Information may differ from the station used for current weather conditions.

Click here for Long-term Archive

Time Weather Temperature Dewpoint Humidity Pressure Winds Precip Visibility
23:55
Overcast
Fog And Mist
55°F / 13°C 55°F / 13°C 100% 30.15 in
(1021 mb)
Calm - 2SM
23:35
Overcast
Fog And Mist
57°F / 14°C 55°F / 13°C 94% 30.15 in
(1021 mb)
Calm - 5SM
23:15
Overcast
Fog And Mist
55°F / 13°C 55°F / 13°C 100% 30.15 in
(1021 mb)
Calm - 3SM
22:55
Overcast
Fog And Mist
55°F / 13°C 55°F / 13°C 100% 30.15 in
(1021 mb)
Calm - 1 3/4SM
22:35
Overcast
Fog And Mist
55°F / 13°C 55°F / 13°C 100% 30.15 in
(1021 mb)
Calm - 2 1/2SM
22:15
Overcast
57°F / 14°C 55°F / 13°C 94% 30.15 in
(1021 mb)
NW 3.5 mph
(NW 6 kph)
- 10SM
21:55
Overcast
59°F / 15°C 55°F / 13°C 88% 30.12 in
(1020 mb)
Calm - 10SM
21:35
Overcast
59°F / 15°C 55°F / 13°C 88% 30.12 in
(1020 mb)
Calm - 10SM
21:15
Overcast
59°F / 15°C 55°F / 13°C 88% 30.12 in
(1020 mb)
Calm - 10SM
20:55
Overcast
57°F / 14°C 55°F / 13°C 94% 30.12 in
(1020 mb)
Calm - 10SM
20:35
Overcast
57°F / 14°C 55°F / 13°C 94% 30.12 in
(1020 mb)
Calm - 7SM
20:15
Overcast
Fog And Mist
57°F / 14°C 55°F / 13°C 94% 30.12 in
(1020 mb)
Calm - 4SM
19:55
Overcast
Fog And Mist
59°F / 15°C 55°F / 13°C 88% 30.12 in
(1020 mb)
NNW 4.6 mph
(NNW 7 kph)
- 2 1/2SM
19:35
Overcast
Fog And Mist
59°F / 15°C 55°F / 13°C 88% 30.12 in
(1020 mb)
N 3.5 mph
(N 6 kph)
- 5SM
19:15
Overcast
59°F / 15°C 55°F / 13°C 88% 30.12 in
(1020 mb)
N 5.8 mph
(N 9 kph)
- 7SM
18:55
Overcast
59°F / 15°C 55°F / 13°C 88% 30.12 in
(1020 mb)
NNW 4.6 mph
(NNW 7 kph)
- 10SM
18:35
Overcast
59°F / 15°C 55°F / 13°C 88% 30.12 in
(1020 mb)
NNW 4.6 mph
(NNW 7 kph)
- 10SM
18:15
Overcast
59°F / 15°C 55°F / 13°C 88% 30.12 in
(1020 mb)
N 6.9 mph
(N 11 kph)
- 10SM
17:55
Overcast
59°F / 15°C 55°F / 13°C 88% 30.12 in
(1020 mb)
NNW 5.8 mph
(NNW 9 kph)
- 10SM
17:35
Mostly Cloudy
59°F / 15°C 55°F / 13°C 88% 30.12 in
(1020 mb)
NW 5.8 mph
(NW 9 kph)
- 10SM
17:15
Partly Cloudy
59°F / 15°C 55°F / 13°C 88% 30.12 in
(1020 mb)
NW 6.9 mph
(NW 11 kph)
- 10SM
16:55
Clear
61°F / 16°C 55°F / 13°C 83% 30.12 in
(1020 mb)
NW 6.9 mph
(NW 11 kph)
- 10SM
16:35
Clear
61°F / 16°C 55°F / 13°C 83% 30.12 in
(1020 mb)
WNW 5.8 mph
(WNW 9 kph)
- 10SM
16:15
Clear
63°F / 17°C 55°F / 13°C 77% 30.12 in
(1020 mb)
WNW 6.9 mph
(WNW 11 kph)
- 10SM
15:55
Clear
63°F / 17°C 54°F / 12°C 73% 30.12 in
(1020 mb)
NW 6.9 mph
(NW 11 kph)
- 10SM
15:35
Clear
64°F / 18°C 54°F / 12°C 68% 30.12 in
(1020 mb)
NW 8.1 mph
(NW 13 kph)
- 10SM
15:15
Clear
64°F / 18°C 54°F / 12°C 68% 30.12 in
(1020 mb)
WNW 8.1 mph
(WNW 13 kph)
- 10SM
14:55
Clear
64°F / 18°C 55°F / 13°C 73% 30.12 in
(1020 mb)
NNW 6.9 mph
(NNW 11 kph)
- 10SM
14:35
Clear
63°F / 17°C 54°F / 12°C 73% 30.12 in
(1020 mb)
NW 6.9 mph
(NW 11 kph)
- 10SM
14:15
Clear
63°F / 17°C 55°F / 13°C 77% 30.12 in
(1020 mb)
NNW 8.1 mph
(NNW 13 kph)
- 10SM
13:55
Partly Cloudy
61°F / 16°C 54°F / 12°C 77% 30.15 in
(1021 mb)
WNW 8.1 mph
(WNW 13 kph)
- 10SM
13:35
Mostly Cloudy
61°F / 16°C 54°F / 12°C 77% 30.15 in
(1021 mb)
W 6.9 mph
(W 11 kph)
- 10SM
13:15
Overcast
59°F / 15°C 54°F / 12°C 82% 30.15 in
(1021 mb)
SSW 5.8 mph
(SSW 9 kph)
- 10SM
12:55
Overcast
61°F / 16°C 54°F / 12°C 77% 30.15 in
(1021 mb)
SSW 8.1 mph
(SSW 13 kph)
- 10SM
12:35
Overcast
59°F / 15°C 54°F / 12°C 82% 30.15 in
(1021 mb)
SW 9.2 mph
(SW 15 kph)
- 10SM
12:15
Overcast
59°F / 15°C 54°F / 12°C 82% 30.15 in
(1021 mb)
SW 11.5 mph
(SW 19 kph)
- 10SM
11:55
Mostly Cloudy
Hazy
59°F / 15°C 54°F / 12°C 82% 30.12 in
(1020 mb)
SW 10.4 mph
(SW 17 kph)
- 3SM
11:35
Partly Cloudy
59°F / 15°C 54°F / 12°C 82% 30.12 in
(1020 mb)
SW 11.5 mph
(SW 19 kph)
- 10SM
11:15
Partly Cloudy
59°F / 15°C 54°F / 12°C 82% 30.12 in
(1020 mb)
SW 9.2 mph
(SW 15 kph)
- 10SM
10:55
Mostly Cloudy
59°F / 15°C 54°F / 12°C 82% 30.12 in
(1020 mb)
SW 9.2 mph
(SW 15 kph)
- 10SM
10:35
Overcast
55°F / 13°C 54°F / 12°C 94% 30.12 in
(1020 mb)
SW 8.1 mph
(SW 13 kph)
- 10SM
10:15
Mostly Cloudy
59°F / 15°C 54°F / 12°C 82% 30.12 in
(1020 mb)
SW 9.2 mph
(SW 15 kph)
- 10SM
09:55
Mostly Cloudy
59°F / 15°C 54°F / 12°C 82% 30.12 in
(1020 mb)
SSW 9.2 mph
(SSW 15 kph)
- 10SM
09:35
Overcast
59°F / 15°C 54°F / 12°C 82% 30.09 in
(1019 mb)
SW 6.9 mph
(SW 11 kph)
- 10SM
09:15
Overcast
59°F / 15°C 55°F / 13°C 88% 30.12 in
(1020 mb)
Calm - 10SM
08:55
Overcast
57°F / 14°C 55°F / 13°C 94% 30.12 in
(1020 mb)
SE 3.5 mph
(SE 6 kph)
- 10SM
08:35
Overcast
55°F / 13°C 55°F / 13°C 100% 30.12 in
(1020 mb)
Calm - 10SM
08:15
Mostly Cloudy
55°F / 13°C 55°F / 13°C 100% 30.12 in
(1020 mb)
SSE 3.5 mph
(SSE 6 kph)
- 10SM
07:55
Overcast
55°F / 13°C 54°F / 12°C 94% 30.12 in
(1020 mb)
S 3.5 mph
(S 6 kph)
- 7SM
07:35
Overcast
Fog And Mist
55°F / 13°C 54°F / 12°C 94% N/A SSE 8.1 mph
(SSE 13 kph)
- 1 1/4SM
07:15
Overcast
Fog And Mist
54°F / 12°C 54°F / 12°C 100% 30.12 in
(1020 mb)
SSE 8.1 mph
(SSE 13 kph)
- 3SM
06:55
Overcast
54°F / 12°C 54°F / 12°C 100% 30.12 in
(1020 mb)
SSE 6.9 mph
(SSE 11 kph)
- 7SM
06:35
Overcast
54°F / 12°C 54°F / 12°C 100% 30.12 in
(1020 mb)
SW 8.1 mph
(SW 13 kph)
- 10SM
06:15
Overcast
Fog And Mist
54°F / 12°C 54°F / 12°C 100% 30.09 in
(1019 mb)
SSE 6.9 mph
(SSE 11 kph)
- 2SM
05:55
Overcast
Fog And Mist
54°F / 12°C 54°F / 12°C 100% 30.09 in
(1019 mb)
SSE 8.1 mph
(SSE 13 kph)
- 2 1/2SM
05:35
Overcast
Fog And Mist
54°F / 12°C 54°F / 12°C 100% 30.09 in
(1019 mb)
S 6.9 mph
(S 11 kph)
- 1SM
05:15
Overcast
Fog And Mist
54°F / 12°C 54°F / 12°C 100% 30.09 in
(1019 mb)
SSE 5.8 mph
(SSE 9 kph)
- 4SM
04:55
Overcast
Fog And Mist
54°F / 12°C 54°F / 12°C 100% 30.09 in
(1019 mb)
SSE 4.6 mph
(SSE 7 kph)
- 2SM
04:35
Overcast
Fog And Mist
54°F / 12°C 52°F / 11°C 94% 30.06 in
(1018 mb)
SSE 5.8 mph
(SSE 9 kph)
- 3/4SM
04:15
Overcast
Fog And Mist
54°F / 12°C 52°F / 11°C 94% 30.06 in
(1018 mb)
SW 5.8 mph
(SW 9 kph)
- 2 1/2SM
03:55
Overcast
Fog And Mist
54°F / 12°C 54°F / 12°C 100% 30.06 in
(1018 mb)
SW 8.1 mph
(SW 13 kph)
- 5SM
03:35
Overcast
Fog And Mist
54°F / 12°C 54°F / 12°C 100% 30.06 in
(1018 mb)
SSE 5.8 mph
(SSE 9 kph)
- 5SM
03:15
Overcast
Fog And Mist
54°F / 12°C 54°F / 12°C 100% 30.06 in
(1018 mb)
SW 3.5 mph
(SW 6 kph)
- 4SM
02:55
Overcast
Fog And Mist
54°F / 12°C 54°F / 12°C 100% 30.06 in
(1018 mb)
SW 3.5 mph
(SW 6 kph)
- 2 1/2SM
02:35
Overcast
Fog And Mist
54°F / 12°C 54°F / 12°C 100% 30.06 in
(1018 mb)
Calm - 5SM
02:15
Overcast
54°F / 12°C 54°F / 12°C 100% 30.06 in
(1018 mb)
S 4.6 mph
(S 7 kph)
- 10SM
01:55
Overcast
54°F / 12°C 54°F / 12°C 100% 30.06 in
(1018 mb)
SSE 4.6 mph
(SSE 7 kph)
- 10SM
01:35
Overcast
54°F / 12°C 54°F / 12°C 100% 30.06 in
(1018 mb)
S 4.6 mph
(S 7 kph)
- 7SM
01:15
Overcast
Fog And Mist
54°F / 12°C 54°F / 12°C 100% 30.06 in
(1018 mb)
SW 3.5 mph
(SW 6 kph)
- 3SM
00:55
Overcast
Fog And Mist
54°F / 12°C 54°F / 12°C 100% 30.06 in
(1018 mb)
SW 3.5 mph
(SW 6 kph)
- 3SM
00:35
Overcast
Fog And Mist
54°F / 12°C 54°F / 12°C 100% 30.06 in
(1018 mb)
Calm - 2 1/2SM
00:15
Overcast
Fog And Mist
54°F / 12°C 54°F / 12°C 100% 30.06 in
(1018 mb)
SSE 3.5 mph
(SSE 6 kph)
- 2SM
Time Weather Temperature Dewpoint Humidity Pressure Winds Precip Visibility


Weather for websites

WeatherForYou.com, LLC is not responsible for any damages or problems caused by this service. Current weather conditions are obtained from the closest station including government and personal stations which may have varying degrees of accuracy. Weather forecasts are derived from the NOAA NDFD. Like all things, this site belongs to Jesus Christ... He just trusts us to maintain it. If you have any questions or comments email webmaster@weatherforyou.com

Copyright © 2015, WeatherForYou.com LLC. All rights reserved.